timestamp,wind_dir_avg,wind_spd_avg,wind_spd_max_dir,wind_spd_gust,battery_voltage,lat,long
2023-07-08 00:04:00+00:00,200.0,4.64,213.0,5.26,12.73,47.59359,-54.27349
2023-07-08 00:14:01+00:00,204.0,4.77,204.0,5.41,12.41,47.59359,-54.27349
2023-07-08 00:24:01+00:00,211.0,5.56,208.0,5.88,12.41,47.59359,-54.27349
2023-07-08 00:34:01+00:00,204.0,5.14,207.0,5.54,12.41,47.59359,-54.27349
2023-07-08 00:44:01+00:00,210.0,3.9,208.0,4.37,12.41,47.59359,-54.27349
2023-07-08 00:54:01+00:00,213.0,3.65,214.0,3.95,12.41,47.59359,-54.27349
2023-07-08 01:04:01+00:00,209.0,3.61,212.0,4.11,12.41,47.59359,-54.27349
2023-07-08 01:14:01+00:00,195.0,3.64,200.0,4.1,12.41,47.59359,-54.27349
2023-07-08 01:24:01+00:00,218.0,3.7,219.0,3.86,12.41,47.59359,-54.27349
2023-07-08 01:34:01+00:00,204.0,3.57,195.0,3.95,12.41,47.59359,-54.27349
2023-07-08 01:44:01+00:00,211.0,1.87,208.0,2.19,12.41,47.59359,-54.27349
2023-07-08 01:54:01+00:00,220.0,1.54,218.0,1.71,12.41,47.59359,-54.27349
2023-07-08 02:04:01+00:00,199.0,0.68,195.0,0.84,12.41,47.59359,-54.27349
2023-07-08 02:14:00+00:00,187.0,2.63,182.0,2.99,12.41,47.59359,-54.27349
2023-07-08 02:24:00+00:00,198.0,3.29,200.0,3.63,12.41,47.59359,-54.27349
2023-07-08 02:34:00+00:00,204.0,3.23,201.0,3.88,12.41,47.59359,-54.27349
2023-07-08 02:44:00+00:00,210.0,3.39,218.0,4.02,12.41,47.59359,-54.27349
2023-07-08 02:54:00+00:00,222.0,3.5,225.0,3.9,12.41,47.59359,-54.27349
2023-07-08 03:04:00+00:00,214.0,4.4,215.0,4.81,12.41,47.59359,-54.27349
2023-07-08 03:14:01+00:00,222.0,4.11,223.0,4.45,12.41,47.59359,-54.27349
2023-07-08 03:24:01+00:00,226.0,3.9,225.0,4.39,12.41,47.59359,-54.27349
2023-07-08 03:34:01+00:00,231.0,2.89,232.0,3.23,12.41,47.59359,-54.27349
2023-07-08 03:44:01+00:00,251.0,1.29,256.0,1.71,12.41,47.59359,-54.27349
2023-07-08 03:54:01+00:00,265.0,1.8,267.0,2.09,12.41,47.59359,-54.27349
2023-07-08 04:04:01+00:00,221.0,2.98,223.0,3.3,12.41,47.59359,-54.27349
2023-07-08 04:14:00+00:00,223.0,0.95,220.0,1.25,12.33,47.59359,-54.27349
2023-07-08 04:24:00+00:00,219.0,2.67,221.0,2.85,12.33,47.59359,-54.27349
2023-07-08 04:34:00+00:00,230.0,2.72,229.0,3.05,12.33,47.59359,-54.27349
2023-07-08 04:44:00+00:00,217.0,2.36,220.0,2.78,12.33,47.59359,-54.27349
2023-07-08 04:54:00+00:00,202.0,1.35,191.0,1.69,12.33,47.59359,-54.27349
2023-07-08 05:04:00+00:00,193.0,0.29,181.0,0.41,12.33,47.59359,-54.27349
2023-07-08 05:14:00+00:00,210.0,1.09,213.0,1.48,12.33,47.59359,-54.27349
2023-07-08 05:24:00+00:00,237.0,0.28,234.0,0.45,12.33,47.59359,-54.27349
2023-07-08 05:34:00+00:00,183.0,1.44,192.0,1.72,12.33,47.59359,-54.27349
2023-07-08 05:44:00+00:00,173.0,2.38,174.0,2.6,12.33,47.59359,-54.27349
2023-07-08 05:54:00+00:00,192.0,2.55,197.0,2.77,12.33,47.59359,-54.27349
2023-07-08 06:04:00+00:00,184.0,2.95,186.0,3.12,12.33,47.59359,-54.27349
2023-07-08 06:14:00+00:00,175.0,3.27,175.0,3.67,12.33,47.59359,-54.27349
2023-07-08 06:24:00+00:00,203.0,3.57,204.0,3.91,12.33,47.59359,-54.27349
2023-07-08 06:34:00+00:00,216.0,3.8,215.0,4.02,12.33,47.59359,-54.27349
2023-07-08 06:44:00+00:00,202.0,3.54,206.0,3.83,12.33,47.59359,-54.27349
2023-07-08 06:54:00+00:00,197.0,3.07,197.0,3.3,12.33,47.59359,-54.27349
2023-07-08 07:04:00+00:00,212.0,2.82,214.0,3.16,12.33,47.59359,-54.27349
2023-07-08 07:14:01+00:00,233.0,2.76,234.0,3.07,12.33,47.59359,-54.27349
2023-07-08 07:24:01+00:00,214.0,2.19,218.0,2.59,12.33,47.59359,-54.27349
2023-07-08 07:34:01+00:00,227.0,2.47,225.0,2.85,12.33,47.59359,-54.27349
2023-07-08 07:44:01+00:00,217.0,1.38,215.0,1.68,12.33,47.59359,-54.27349
2023-07-08 07:54:01+00:00,189.0,1.26,196.0,1.72,12.33,47.59359,-54.27349
2023-07-08 08:04:01+00:00,167.0,2.0,162.0,2.27,12.33,47.59359,-54.27349
2023-07-08 08:14:00+00:00,212.0,0.73,209.0,0.85,12.25,47.59359,-54.27349
2023-07-08 08:24:00+00:00,209.0,2.1,217.0,2.68,12.25,47.59359,-54.27349
2023-07-08 08:34:00+00:00,185.0,1.46,186.0,1.66,12.25,47.59359,-54.27349
2023-07-08 08:44:00+00:00,202.0,3.1,204.0,3.32,12.25,47.59359,-54.27349
2023-07-08 08:54:00+00:00,204.0,2.4,203.0,2.55,12.25,47.59359,-54.27349
2023-07-08 09:04:00+00:00,218.0,2.53,219.0,2.84,12.25,47.59359,-54.27349
2023-07-08 09:14:00+00:00,220.0,2.26,222.0,2.42,12.41,47.59359,-54.27349
2023-07-08 09:24:00+00:00,191.0,2.12,190.0,2.33,12.41,47.59359,-54.27349
2023-07-08 09:34:00+00:00,195.0,2.2,191.0,2.38,12.41,47.59359,-54.27349
2023-07-08 09:44:00+00:00,194.0,3.75,195.0,4.08,12.41,47.59359,-54.27349
2023-07-08 09:54:00+00:00,207.0,3.5,206.0,3.65,12.41,47.59359,-54.27349
2023-07-08 10:04:00+00:00,198.0,3.28,198.0,3.55,12.41,47.59359,-54.27349
2023-07-08 10:14:01+00:00,199.0,2.93,200.0,3.01,13.05,47.59359,-54.27349
2023-07-08 10:24:01+00:00,192.0,2.9,193.0,3.02,13.05,47.59359,-54.27349
2023-07-08 10:34:01+00:00,188.0,1.19,186.0,1.47,13.05,47.59359,-54.27349
2023-07-08 10:44:01+00:00,221.0,2.15,219.0,2.47,13.05,47.59359,-54.27349
2023-07-08 10:54:01+00:00,228.0,2.44,229.0,2.67,13.05,47.59359,-54.27349
2023-07-08 11:04:01+00:00,219.0,3.91,218.0,4.33,13.05,47.59359,-54.27349
2023-07-08 11:14:01+00:00,212.0,3.57,215.0,3.76,13.44,47.59359,-54.27349
2023-07-08 11:24:01+00:00,211.0,4.19,209.0,4.5,13.44,47.59359,-54.27349
2023-07-08 11:34:01+00:00,216.0,3.62,216.0,4.17,13.44,47.59359,-54.27349
2023-07-08 11:44:01+00:00,213.0,4.82,214.0,5.13,13.44,47.59359,-54.27349
2023-07-08 11:54:01+00:00,210.0,5.02,210.0,5.39,13.44,47.59359,-54.27349
2023-07-08 12:04:01+00:00,207.0,4.65,208.0,4.97,13.44,47.59359,-54.27349
2023-07-08 12:14:00+00:00,190.0,3.09,189.0,3.32,13.6,47.59359,-54.27349
2023-07-08 12:24:00+00:00,181.0,4.07,182.0,4.59,13.6,47.59359,-54.27349
2023-07-08 12:34:00+00:00,197.0,2.92,202.0,3.16,13.6,47.59359,-54.27349
2023-07-08 12:44:00+00:00,194.0,3.69,194.0,4.55,13.6,47.59359,-54.27349
2023-07-08 12:54:00+00:00,211.0,5.21,208.0,5.55,13.6,47.59359,-54.27349
2023-07-08 13:04:00+00:00,205.0,5.01,204.0,5.53,13.6,47.59359,-54.27349
2023-07-08 13:14:00+00:00,203.0,5.81,203.0,6.33,13.68,47.59359,-54.27349
2023-07-08 13:24:00+00:00,210.0,6.47,210.0,7.0,13.68,47.59359,-54.27349
2023-07-08 13:34:00+00:00,211.0,5.87,212.0,6.25,13.68,47.59359,-54.27349
2023-07-08 13:44:00+00:00,206.0,5.72,207.0,6.16,13.68,47.59359,-54.27349
2023-07-08 13:54:00+00:00,211.0,5.62,212.0,5.88,13.68,47.59359,-54.27349
2023-07-08 14:04:00+00:00,194.0,4.92,199.0,5.36,13.68,47.59359,-54.27349
2023-07-08 14:14:00+00:00,195.0,5.0,197.0,5.54,13.68,47.59359,-54.27349
2023-07-08 14:24:00+00:00,202.0,4.8,202.0,5.3,13.68,47.59359,-54.27349
2023-07-08 14:34:00+00:00,202.0,5.1,203.0,5.62,13.68,47.59359,-54.27349
2023-07-08 14:44:00+00:00,206.0,6.95,204.0,7.35,13.68,47.59359,-54.27349
2023-07-08 14:54:00+00:00,207.0,7.31,208.0,7.76,13.68,47.59359,-54.27349
2023-07-08 15:04:00+00:00,198.0,7.15,199.0,7.91,13.68,47.59359,-54.27349
2023-07-08 15:14:00+00:00,200.0,7.16,201.0,7.68,14.08,47.59359,-54.27349
2023-07-08 15:24:00+00:00,202.0,7.38,201.0,8.03,14.08,47.59359,-54.27349
2023-07-08 15:34:00+00:00,212.0,7.82,219.0,8.86,14.08,47.59359,-54.27349
2023-07-08 15:44:00+00:00,206.0,7.75,206.0,8.78,14.08,47.59359,-54.27349
2023-07-08 15:54:00+00:00,207.0,8.03,212.0,8.74,14.08,47.59359,-54.27349
2023-07-08 16:04:00+00:00,207.0,8.38,213.0,9.63,14.08,47.59359,-54.27349
2023-07-08 16:14:00+00:00,209.0,9.1,221.0,11.32,14.0,47.59359,-54.27349
2023-07-08 16:24:00+00:00,212.0,8.56,218.0,9.79,14.0,47.59359,-54.27349
2023-07-08 16:34:00+00:00,206.0,8.14,208.0,9.44,14.0,47.59359,-54.27349
2023-07-08 16:44:00+00:00,214.0,8.78,226.0,11.23,14.0,47.59359,-54.27349
2023-07-08 16:54:00+00:00,216.0,9.42,224.0,11.37,14.0,47.59359,-54.27349
2023-07-08 17:04:00+00:00,218.0,10.34,225.0,12.08,14.0,47.59359,-54.27349
2023-07-08 17:14:00+00:00,222.0,11.35,227.0,13.23,13.68,47.59359,-54.27349
2023-07-08 17:24:00+00:00,220.0,10.47,228.0,12.18,13.68,47.59359,-54.27349
2023-07-08 17:34:00+00:00,211.0,9.33,223.0,11.15,13.68,47.59359,-54.27349
2023-07-08 17:44:00+00:00,216.0,9.52,228.0,11.91,13.68,47.59359,-54.27349
2023-07-08 17:54:00+00:00,209.0,8.87,216.0,10.56,13.68,47.59359,-54.27349
2023-07-08 18:04:00+00:00,210.0,9.09,210.0,10.4,13.68,47.59359,-54.27349
2023-07-08 18:14:00+00:00,215.0,9.55,219.0,10.83,13.68,47.59359,-54.27349
2023-07-08 18:24:00+00:00,218.0,9.83,222.0,11.17,13.68,47.59359,-54.27349
2023-07-08 18:34:00+00:00,211.0,8.31,218.0,9.51,13.68,47.59359,-54.27349
2023-07-08 18:44:00+00:00,211.0,8.61,221.0,10.76,13.68,47.59359,-54.27349
2023-07-08 18:54:00+00:00,212.0,8.52,212.0,9.46,13.68,47.59359,-54.27349
2023-07-08 19:04:00+00:00,210.0,8.38,216.0,9.27,13.68,47.59359,-54.27349
2023-07-08 19:14:00+00:00,208.0,7.75,211.0,8.52,13.68,47.59359,-54.27349
2023-07-08 19:24:00+00:00,214.0,8.68,228.0,11.23,13.68,47.59359,-54.27349
2023-07-08 19:34:00+00:00,209.0,8.42,220.0,10.21,13.68,47.59359,-54.27349
2023-07-08 19:44:00+00:00,205.0,6.99,207.0,7.95,13.68,47.59359,-54.27349
2023-07-08 19:54:00+00:00,198.0,6.25,196.0,7.16,13.68,47.59359,-54.27349
2023-07-08 20:04:00+00:00,211.0,7.33,212.0,8.11,13.68,47.59359,-54.27349
2023-07-08 20:14:00+00:00,215.0,6.59,214.0,7.53,13.68,47.59359,-54.27349
2023-07-08 20:24:00+00:00,211.0,7.55,211.0,8.1,13.68,47.59359,-54.27349
2023-07-08 20:34:00+00:00,212.0,5.26,211.0,5.72,13.68,47.59359,-54.27349
2023-07-08 20:44:00+00:00,210.0,5.54,206.0,6.11,13.68,47.59359,-54.27349
2023-07-08 20:54:00+00:00,199.0,6.26,198.0,6.7,13.68,47.59359,-54.27349
2023-07-08 21:04:00+00:00,315.0,0.01,193.0,0.0,13.68,47.59359,-54.27349
2023-07-08 21:14:00+00:00,164.0,5.63,167.0,6.49,13.44,47.59359,-54.27349
2023-07-08 21:24:00+00:00,153.0,4.23,156.0,5.44,13.44,47.59359,-54.27349
2023-07-08 21:34:00+00:00,68.0,2.55,65.0,3.39,13.44,47.59359,-54.27349
2023-07-08 21:44:00+00:00,49.0,2.43,43.0,2.92,13.44,47.59359,-54.27349
2023-07-08 21:54:00+00:00,67.0,0.85,70.0,1.33,13.44,47.59359,-54.27349
2023-07-08 22:04:00+00:00,158.0,1.88,142.0,3.88,13.44,47.59359,-54.27349
2023-07-08 22:14:00+00:00,71.0,0.68,94.0,1.61,13.37,47.59359,-54.27349
2023-07-08 22:24:00+00:00,190.0,1.96,193.0,2.83,13.37,47.59359,-54.27349
2023-07-08 22:34:00+00:00,315.0,0.01,172.0,0.0,13.37,47.59359,-54.27349
2023-07-08 22:44:00+00:00,192.0,1.77,204.0,2.43,13.37,47.59359,-54.27349
2023-07-08 22:54:00+00:00,185.0,2.75,185.0,3.4,13.37,47.59359,-54.27349
2023-07-08 23:04:00+00:00,193.0,4.13,192.0,4.57,13.37,47.59359,-54.27349
2023-07-08 23:14:00+00:00,129.0,0.88,131.0,1.18,12.89,47.59359,-54.27349
2023-07-08 23:24:00+00:00,315.0,0.01,45.0,0.0,12.89,47.59359,-54.27349
2023-07-08 23:34:00+00:00,69.0,1.82,68.0,2.27,12.89,47.59359,-54.27349
2023-07-08 23:44:00+00:00,57.0,1.9,61.0,2.2,12.89,47.59359,-54.27349
2023-07-08 23:54:00+00:00,51.0,1.45,50.0,1.58,12.89,47.59359,-54.27349
